Weather in Firozabad

India     27°08′54″N   78°23′30″E
temp.,
°C
wind,
m/s
gust,
m/s
humid.,
%
clouds,
%
prec.,
mm/h
press.,
hPa
HPBL,
m
28 november, sun
sun2823:30+19e34490 0.0 101754
02:30+18e33530 0.0 101741
05:30+17e22560 0.0 101723
08:30+19ese23500 0.0 1019141
11:30+24se22355 0.0 1018790
14:30+26sse113052 0.0 10151303
17:30+23nne113861 0.0 101511
20:30+21ese11425 0.0 101711
29 november, mon
mon2923:30+19e11465 0.0 101711
02:30+18e11490 0.0 101711
05:30+17nne115284 0.0 101711
08:30+20sw00475 0.0 101981
11:30+24wsw223610 0.0 1018824
14:30+26wnw3430100 0.0 10151696
17:30+23nw333899 0.0 101521
20:30+20nw224052 0.0 101712
30 november, tue
tue3023:30+19nw2236100 0.0 101612
02:30+17wnw223418 0.0 101515
05:30+16wnw2235100 0.0 101519
08:30+18wnw2436100 0.0 1017116
11:30+23nw3424100 0.0 1017627
14:30+25nw2321100 0.0 10141061
17:30+21nw2229100 0.0 101512
20:30+19wnw1130100 0.0 101711
1 december, wed
wed123:30+18wnw1132100 0.0 101611
02:30+18nnw2234100 0.0 101613
05:30+17n1135100 0.0 101611
08:30+19nw0134100 0.0 101960
11:30+23n222699 0.0 1018508
14:30+24nnw2325100 0.0 1015830
17:30+21nnw2232100 0.0 101514
20:30+20nnw3334100 0.0 101636
2 december, thu
thu223:30+19nw2235100 0.0 101626
02:30+19wnw2235100 0.0 101621
05:30+19nnw2336100 0.0 101548
08:30+19wnw2238100 0.0 101725
11:30+19wnw4739100 0.0 1017192
14:30+20n1139100 0.0 101519
17:30+19s2241100 0.0 101538
20:30+19ssw3443100 0.0 101790